This is the latest recevied weather packets stored in our database for station/object KB1ZFK. If no packets are shown the sender has not sent any weather packets the latest 10 day(s).
| Time | Temp. | Humidity | Pressure | Rain* | Wind** | Luminosity | Snow |
|---|---|---|---|---|---|---|---|
| 1777829430 | 9.44° C | 57% | 1006.1 hPa | 0 mm | - | 392 W/m² | - |
| 1777829128 | 9.44° C | 54% | 1006.1 hPa | 0 mm | - | 338 W/m² | - |
| 1777828824 | 9.44° C | 55% | 1006 hPa | 0 mm | - | 335 W/m² | - |
| 1777828521 | 9.44° C | 56% | 1006.1 hPa | 0 mm | - | 312 W/m² | - |
| 1777828218 | 9.44° C | 61% | 1006 hPa | 0 mm | - | 350 W/m² | - |
| 1777827914 | 9.44° C | 57% | 1006.1 hPa | 0 mm | - | 367 W/m² | - |
| 1777827612 | 8.89° C | 59% | 1006.1 hPa | 0 mm | - | 407 W/m² | - |
| 1777827309 | 8.33° C | 58% | 1005.9 hPa | 0 mm | - | 383 W/m² | - |
| 1777827005 | 7.78° C | 62% | 1006.1 hPa | 0 mm | - | 243 W/m² | - |
| 1777826703 | 7.78° C | 64% | 1006 hPa | 0 mm | - | 157 W/m² | - |
| 1777826399 | 7.78° C | 64% | 1006 hPa | 0 mm | - | 146 W/m² | - |
| 1777826096 | 8.33° C | 68% | 1006.1 hPa | 0 mm | - | 144 W/m² | - |
| 1777825793 | 8.33° C | 67% | 1006 hPa | 0 mm | - | 160 W/m² | - |
| 1777825490 | 8.33° C | 71% | 1006 hPa | 0 mm | - | 221 W/m² | - |
| 1777825188 | 8.33° C | 70% | 1006.2 hPa | 0 mm | - | 228 W/m² | - |
| 1777824884 | 8.33° C | 69% | 1006.1 hPa | 0 mm | - | 213 W/m² | - |
| 1777824580 | 8.33° C | 70% | 1006.2 hPa | 0 mm | - | 200 W/m² | - |
| 1777824278 | 7.78° C | 74% | 1006.2 hPa | 0 mm | - | 214 W/m² | - |
| 1777823973 | 7.78° C | 74% | 1006.4 hPa | 0 mm | - | 228 W/m² | - |
| 1777823671 | 7.78° C | 69% | 1006.4 hPa | 0 mm | - | 233 W/m² | - |
| 1777823367 | 7.78° C | 72% | 1006.4 hPa | 0 mm | - | 223 W/m² | - |
| 1777823065 | 7.22° C | 75% | 1006.3 hPa | 0 mm | - | 212 W/m² | - |
| 1777822763 | 7.22° C | 70% | 1006.4 hPa | 0 mm | - | 223 W/m² | - |
| 1777822460 | 7.22° C | 71% | 1006.3 hPa | 0 mm | - | 219 W/m² | - |
| 1777822158 | 7.22° C | 77% | 1006.4 hPa | 0 mm | - | 195 W/m² | - |
* Rain latest hour (hover to see other rain measurements)
** Current wind speed in m/s (hover to see current wind gust speed)